Zurück zum Katalog

STARLINK-34781

AktivKommunikationSSO
NORAD 65073·PAYLOAD·🇺🇸 United States

Gestartet Jul 31, 2025 von Vandenberg Space Force Base

Loading…

Nächste Überflüge (nächste 24 Stunden)

TLE

AktuellSource: CelesTrak SupGP

Epoche: Sep 14, 2026, 22:54 UTC

1 65073C 25165T   26257.95465278  .02158600  00000+0  10755+0 0  2573
2 65073  97.2843 329.2824 0001547  92.3545  33.9892 15.16559702    17

Verfolge STARLINK-34781 in Echtzeit mit AllMySat

Download on the App Store